Temp
26 26 26 27 28 28 28 28 27 26 26 25 25 25 24 24 25 25 25 25 26 26
25 26 26 27 28 28 28 28 28 27 26 26 25 25 25 25 25 25 25 25 25 26
24 25 26 27 27 27 28 28 27 26 26 26 26 25 25 25 26 25 25 26 25 26
24 25 25 26 27 27 28 27 28 27 26 26 26 26 25 26 26 26 26 26 26 26
25 24 25 26 26 27 27 27 27 27 26 26 26 26 25 25 26 26 26 26 26 26
25 25 25 25 26 26 26 26 26 26 26 26 26 26 26 25 25 26 26 26 26 26
25 26 25 25 25 26 26 26 26 26 26 25 25 26 26 26 25 25 26 26 26 26
26 26 26 26 25 25 26 26 25 25 26 25 25 25 26 26 26 25 26 26 26 26
27 26 26 26 26 25 25 26 25 25 25 26 25 26 26 26 26 26 26 26 26 26
28 27 26 26 26 26 25 26 25 25 25 25 26 26 27 27 26 26 26 26 26 26
28 27 27 26 26 26 26 25 26 25 25 25 25 26 27 28 27 26 27 27 26 26
29 28 27 26 26 26 26 26 26 26 25 25 26 26 26 27 27 27 26 27 27 27
29 28 27 27 26 26 26 26 26 26 26 25 25 26 26 26 26 26 26 26 26 26
29 29 28 27 26 26 26 26 26 26 26 26 26 26 26 26 26 26 26 26 26 26
Height
823 826 829 833 835 837 840 842 844 848 851 855 859 861 863 864 865 865 866 867 868 868
818 822 825 829 832 835 837 840 840 845 849 852 856 859 860 862 863 865 866 866 867 868
811 816 821 825 828 832 834 837 840 841 844 848 853 855 858 859 861 862 864 864 865 866
803 810 816 820 823 827 830 833 836 840 842 845 849 852 855 856 858 859 860 862 863 864
798 803 808 813 817 822 825 829 832 835 839 842 845 848 851 853 854 856 858 859 860 861
791 795 799 805 811 815 820 823 827 831 834 837 840 843 846 849 851 853 854 856 857 857
781 786 791 798 804 809 813 817 821 825 829 832 835 838 841 844 847 849 850 852 853 854
771 778 785 791 796 802 807 810 815 819 823 826 829 832 835 838 841 843 845 848 849 850
764 772 778 784 789 794 799 803 808 812 816 819 822 825 829 831 835 837 840 842 843 845
755 763 770 776 783 787 791 796 800 804 808 812 814 818 821 825 828 831 833 835 837 839
746 753 762 769 774 779 785 789 792 796 800 804 807 811 815 819 821 824 826 828 830 832
735 743 752 759 765 771 778 782 785 789 792 795 800 804 808 813 815 817 819 821 823 825
727 735 741 747 755 763 769 772 777 780 783 787 791 795 799 804 808 810 812 814 815 817
719 726 734 744 751 756 762 768 771 774 778 781 783 786 789 794 799 801 804 806 807 809
Wind_Speed
28 32 27 14 18 14 16 21 25 24 18 15 12 11 10 9 10 9 9 5 7 8
29 29 26 21 21 17 20 13 22 25 19 15 15 12 13 12 10 9 11 11 10 11
37 34 28 32 24 24 19 20 20 22 20 19 17 16 15 15 13 12 13 11 14 11
36 36 38 27 33 25 28 17 19 16 18 19 20 18 17 19 15 17 16 15 11 16
36 37 36 39 28 33 27 27 18 21 17 19 19 20 21 21 19 17 19 18 16 12
37 37 37 37 37 33 34 27 27 21 24 21 22 22 23 23 22 20 19 20 19 19
40 39 39 36 39 34 33 33 30 29 26 26 25 25 24 24 24 23 22 20 23 21
39 40 38 37 37 39 36 34 32 31 29 29 28 28 27 26 25 26 24 24 23 24
39 38 37 39 36 37 38 35 33 32 32 30 31 30 29 30 28 26 27 26 26 24
38 38 40 37 38 36 37 36 35 34 32 32 33 34 32 32 32 29 27 26 27 25
37 40 38 38 37 38 35 37 36 34 34 33 34 36 35 32 34 32 29 28 29 29
40 38 39 39 39 38 35 35 35 34 34 35 33 35 38 36 33 35 35 35 34 27
40 38 41 41 39 37 37 37 35 35 35 35 35 35 37 39 37 28 30 30 33 33
38 40 37 35 35 35 35 33 33 33 32 32 36 34 38 38 40 32 28 28 27 29
Wind_Direction
201 213 220 217 211 223 211 203 198 191 197 191 210 195 208 199 206 217 230 222 266 274
203 203 211 210 216 214 230 258 191 190 187 194 204 200 208 217 221 225 211 218 225 250
203 204 203 214 213 219 218 235 191 188 188 194 209 212 210 222 224 217 214 221 221 216
200 204 206 208 217 215 218 223 220 196 192 197 207 217 218 226 229 213 221 227 241 219
201 202 206 209 213 211 208 219 221 218 207 211 212 217 220 222 236 227 218 231 241 238
202 202 205 208 208 209 210 208 213 211 216 213 215 219 220 218 226 234 229 226 230 238
204 206 206 206 208 208 207 209 212 214 215 214 217 219 220 219 220 229 238 237 237 239
206 207 206 208 207 207 210 210 210 213 216 213 215 217 219 221 224 226 229 238 243 242
204 204 208 208 208 206 208 211 211 212 214 213 214 218 222 219 221 227 228 232 240 244
199 204 206 207 208 209 207 209 211 212 214 215 216 217 223 223 220 223 228 231 235 240
198 200 204 207 209 210 210 210 211 212 213 216 219 220 222 226 226 222 227 232 236 238
198 197 198 203 208 208 209 212 214 214 214 215 219 222 223 224 226 227 231 235 237 239
196 197 198 202 204 207 209 211 213 217 218 217 218 220 223 225 226 226 229 237 238 241
198 201 200 201 203 205 210 214 216 220 222 221 220 220 223 224 224 224 228 231 236 238